Aswan, Egypt

2:02 AM EET on December 18, 2017 (GMT +0200)
Aswan

Weather History for HESN - December, 2012

Change the Weather History Date:

Sunday, December 2, 2012

  Actual Average Record
Temperature  
Mean Temperature 73 °F -  
Max Temperature 86 °F 73 °F 93 °F (2005)
Min Temperature 60 °F 51 °F 50 °F (1999)
Cooling Degree Days 8    
Growing Degree Days 23 (Base 50)    
Moisture  
Dew Point 47 °F    
Average Humidity 39    
Maximum Humidity 73    
Minimum Humidity 15    
Precipitation  
Precipitation 0.00 in 0.00 in - ()
Sea Level Pressure  
Sea Level Pressure 30.02 in    
Wind  
Wind Speed 7 mph ()    
Max Wind Speed 13 mph    
Max Gust Speed -    
Visibility 6.0 miles    
Events      
Averages and records for this station are not official NWS values.
T = Trace of Precipitation, MM = Missing Value Source: Averaged Metar Reports

Daily Weather History Graph

Daily Weather History Graph

Search for Another Location

Airport or City:

Trip Planner

Search our weather history database for the weather conditions in past years. The results will help you decide how hot, cold, wet, or windy it might be!

Date:

Astronomy

Dec. 02, 2012 Rise Set
Actual Time 6:15 AM EET 5:00 PM EET
Civil Twilight 5:51 AM EET 5:25 PM EET
Nautical Twilight 5:23 AM EET 5:53 PM EET
Astronomical Twilight 4:55 AM EET 6:21 PM EET
Moon 8:19 PM EET (12/2) 9:00 AM EET (12/2)
Length of Visible Light 11h 34m
Length of Day
10h 45m
Waning Gibbous, 87% of the Moon is Illuminated
Dec 2
Waning Gibbous
Dec 6
Last Quarter
Dec 13
New
Dec 20
First Quarter
Dec 28
Full

Hourly Weather History & Observations

Time (EET) Temp. Dew Point Humidity Pressure Visibility Wind Dir Wind Speed Gust Speed Precip Events Conditions
12:00 AM 75.2 °F 50.0 °F 41% 30.04 in - ENE 12.7 mph - N/A   Clear
1:00 AM 73.4 °F 50.0 °F 44% 30.01 in - ENE 10.4 mph - N/A   Clear
2:00 AM 70 °F 48 °F 34% 30.00 in 6 mi North 5.8 mph - -  
2:00 AM 69.8 °F 48.2 °F 46% 30.01 in - North 5.8 mph - N/A   Clear
3:00 AM 68.0 °F 48.2 °F 49% 30.01 in - NNW 5.8 mph - N/A   Clear
4:00 AM 68.0 °F 48.2 °F 49% 30.01 in - NNW 4.6 mph - N/A   Clear
6:00 AM 60.8 °F 50.0 °F 68% 30.04 in - Calm Calm - N/A   Clear
7:00 AM 60.8 °F 51.8 °F 72% 30.06 in - North 9.2 mph - N/A   Clear
8:00 AM 65 °F 54 °F 58% 30.07 in 6 mi North 8.1 mph - -  
8:00 AM 66.2 °F 53.6 °F 64% 30.06 in - North 8.1 mph - N/A   Clear
9:00 AM 69.8 °F 60.8 °F 73% 30.06 in - North 9.2 mph - N/A   Clear
10:00 AM 75.2 °F 53.6 °F 47% 30.06 in - NNE 10.4 mph - N/A   Clear
11:00 AM 78.8 °F 51.8 °F 39% 30.04 in - NNE 8.1 mph - N/A   Clear
12:00 PM 82.4 °F 46.4 °F 28% 30.04 in - NE 9.2 mph - N/A   Clear
1:00 PM 84.2 °F 44.6 °F 25% 30.01 in - North 6.9 mph - N/A   Clear
2:00 PM 86 °F 45 °F 15% 29.96 in 6 mi North 6.9 mph - -  
2:00 PM 86.0 °F 44.6 °F 23% 29.98 in - North 6.9 mph - N/A   Clear
3:00 PM 86.0 °F 44.6 °F 23% 29.98 in - North 8.1 mph - N/A   Clear
4:00 PM 86.0 °F 44.6 °F 23% 29.98 in - North 8.1 mph - N/A   Clear
5:00 PM 82.4 °F 41.0 °F 23% 29.98 in - North 4.6 mph - N/A   Clear
6:00 PM 80.6 °F 42.8 °F 26% 29.98 in - NNW 5.8 mph - N/A   Clear
7:00 PM 77.0 °F 42.8 °F 29% 29.98 in - North 4.6 mph - N/A   Clear
8:00 PM 76 °F 43 °F 20% 29.99 in 6 mi North 5.8 mph - -  
8:00 PM 75.2 °F 42.8 °F 31% 30.01 in - North 5.8 mph - N/A   Clear
9:00 PM 73.4 °F 42.8 °F 33% 30.01 in - North 5.8 mph - N/A   Clear
10:00 PM 71.6 °F 42.8 °F 35% 30.04 in - North 5.8 mph - N/A   Clear
11:00 PM 69.8 °F 42.8 °F 38% 30.04 in - North 5.8 mph - N/A   Clear